Hourly Data Report for October 20, 2014

All times are specified in Local Standard Time (LST). Add 1 hour to adjust for Daylight Saving Time where and when it is observed.

HALL BEACH A
NUNAVUT

68°46'33.000" N
81°14'33.000" W
9.10 m
2402354
71293
YUX

Download Data

Hourly Data (October 2014)
Hourly Data Report for October 20, 2014
Temp Definition
°C
Dew Point Temp Definition
°C
Rel Hum Definition
%
Wind Dir Definition
10's deg

Wind Spd Definition
km/h
Visibility Definition
km
Stn Press Definition
kPa
Hmdx Definition


Wind Chill Definition


Weather Definition


TIME
00:00 Legend Double Dagger -1.6 -1.9 98 18 22 4.8 100.54   -8 Snow
01:00 Legend Double Dagger -1.6 -1.9 98 18 26 6.4 100.48   -8 Snow
02:00 Legend Double Dagger -1.4 -1.7 98 18 26 4.8 100.44   -8 Snow
03:00 Legend Double Dagger -1.3 -1.6 98 18 28 2.8 100.38   -8 Snow
04:00 Legend Double Dagger -1.3 -1.6 98 18 24 2.8 100.32   -7 Snow
05:00 Legend Double Dagger -1.3 -1.6 98 18 22 4.8 100.28   -7 Snow
06:00 Legend Double Dagger -1.3 -1.6 98 18 21 6.4 100.24   -7 Snow
07:00 Legend Double Dagger -1.5 -1.6 99 18 13 9.7 100.20   -6 Snow
08:00 Legend Double Dagger -1.9 -2.0 99 19 5 6.4 100.18   -4 Snow
09:00 Legend Double Dagger -2.8 -2.9 99 28 5 1.6 100.17   -5 Snow
10:00 Legend Double Dagger -5.9 -6.2 98 34 15 1.2 100.18   -12 Snow
11:00 Legend Double Dagger -3.8 -3.9 99 33 13 0.2 100.22   -9 Freezing Fog
12:00 Legend Double Dagger -3.2 -3.3 99 33 18 0.4 100.25   -9 Freezing Rain,Freezing Fog
13:00 Legend Double Dagger -2.2 -2.3 99 33 26 0.4 100.27   -9 Freezing Rain,Freezing Fog
14:00 Legend Double Dagger -2.2 -2.3 99 33 28 14.5 100.30   -9 LegendNANA
15:00 Legend Double Dagger -2.5 -2.6 99 33 34 12.9 100.35   -10 Snow
16:00 Legend Double Dagger -3.6 -3.7 99 33 39 16.1 100.40   -12 LegendNANA
17:00 Legend Double Dagger -4.2 -4.5 98 32 35 16.1 100.47   -13 Snow
18:00 Legend Double Dagger -4.9 -5.3 97 32 37 14.5 100.54   -14 Snow
19:00 Legend Double Dagger -5.7 -6.2 96 32 37 16.1 100.57   -15 LegendNANA
20:00 Legend Double Dagger -6.9 -7.6 95 31 35 16.1 100.60   -16 LegendNANA
21:00 Legend Double Dagger -7.0 -7.8 94 32 43 4.8 100.59   -17 Snow
22:00 Legend Double Dagger -7.5 -8.3 94 33 41 11.3 100.61   -18 LegendNANA
23:00 Legend Double Dagger -8.6 -9.5 93 32 34 16.1 100.65   -18 LegendNANA

Notes on Data Quality.

Legend

  • E = Estimated
  • M = Missing
  • NA = Not Available
  • ‡ = Partner data that is not subject to review by the National Climate Archives
Date modified: